When you browse on this site, cookies collect data to enhance your experience and personalize the content and advertising you see.
Visit our Privacy Policy to learn more. By continuing to use the site, you agree to this use of cookies and data.
  • In United Kingdom
  • List of Countries
  • For 7 days
  • Water Temperature
  • Satellite Maps
  • Weather Map
  • Weather Widgets
  • user-avatar
    Login

    Hourly Weather Aberfoyle

    Today, 21 February, Thursday

    Time Temperature Precipitation Wind Pressure Humidity
    00:00 +8°C° 0 mm 4 mps 735 mmHg 97%
    01:00 +9°C° 0.1 mm 3 mps 735 mmHg 97%
    02:00 +9°C° 0.1 mm 3 mps 735 mmHg 97%
    03:00 +9°C° 0.1 mm 2 mps 735 mmHg 97%
    04:00 +9°C° 0.2 mm 2 mps 736 mmHg 97%
    05:00 +9°C° 0.2 mm 2 mps 736 mmHg 97%
    06:00 +10°C° 0 mm 1 mps 737 mmHg 97%
    07:00 +9°C° 0 mm 2 mps 737 mmHg 97%
    08:00 +9°C° 0 mm 2 mps 738 mmHg 97%
    09:00 +9°C° 0 mm 3 mps 738 mmHg 97%
    10:00 +10°C° 0.1 mm 3 mps 739 mmHg 95%
    11:00 +10°C° 0.1 mm 3 mps 739 mmHg 94%
    12:00 +10°C° 0 mm 3 mps 740 mmHg 92%
    13:00 +10°C° 0 mm 3 mps 740 mmHg 91%
    14:00 +10°C° 0 mm 3 mps 741 mmHg 89%
    15:00 +11°C° 0 mm 3 mps 741 mmHg 88%
    16:00 +10°C° 0 mm 3 mps 741 mmHg 89%
    17:00 +9°C° 0 mm 3 mps 742 mmHg 90%
    18:00 +9°C° 0 mm 3 mps 742 mmHg 91%
    19:00 +8°C° 0 mm 2 mps 742 mmHg 92%
    20:00 +8°C° 0 mm 2 mps 742 mmHg 93%
    21:00 +7°C° 0 mm 2 mps 743 mmHg 93%
    22:00 +7°C° 0 mm 2 mps 743 mmHg 93%
    23:00 +7°C° 0 mm 2 mps 743 mmHg 94%

    Tomorrow, 22 February, Friday

    Time Temperature Precipitation Wind Pressure Humidity
    00:00 +7°C° 0 mm 2 mps 743 mmHg 94%
    01:00 +7°C° 0 mm 2 mps 744 mmHg 93%
    02:00 +7°C° 0 mm 2 mps 744 mmHg 93%
    03:00 +7°C° 0 mm 2 mps 744 mmHg 93%
    04:00 +7°C° 0 mm 3 mps 744 mmHg 91%
    05:00 +7°C° 0 mm 3 mps 744 mmHg 89%
    06:00 +6°C° 0 mm 4 mps 745 mmHg 88%
    07:00 +7°C° 0 mm 3 mps 745 mmHg 86%
    08:00 +8°C° 0 mm 3 mps 745 mmHg 84%
    09:00 +8°C° 0 mm 3 mps 746 mmHg 82%
    10:00 +8°C° 0.1 mm 4 mps 746 mmHg 78%
    11:00 +9°C° 0.1 mm 5 mps 746 mmHg 74%
    12:00 +10°C° 0.1 mm 5 mps 747 mmHg 70%
    13:00 +10°C° 0 mm 5 mps 746 mmHg 68%
    14:00 +12°C° 0 mm 5 mps 746 mmHg 67%
    15:00 +12°C° 0 mm 4 mps 746 mmHg 65%
    16:00 +11°C° 0 mm 4 mps 746 mmHg 67%
    17:00 +10°C° 0 mm 3 mps 746 mmHg 70%
    18:00 +8°C° 0 mm 3 mps 746 mmHg 72%
    19:00 +8°C° 0 mm 3 mps 746 mmHg 75%
    20:00 +8°C° 0 mm 2 mps 746 mmHg 78%
    21:00 +7°C° 0 mm 2 mps 746 mmHg 81%
    22:00 +7°C° 0 mm 2 mps 746 mmHg 83%
    23:00 +7°C° 0 mm 2 mps 745 mmHg 85%

    Day after tomorrow, 23 February, Saturday

    Time Temperature Precipitation Wind Pressure Humidity
    00:00 +7°C° 0 mm 2 mps 745 mmHg 86%
    01:00 +7°C° 0 mm 2 mps 745 mmHg 85%
    02:00 +7°C° 0 mm 2 mps 745 mmHg 84%
    03:00 +7°C° 0 mm 2 mps 745 mmHg 82%
    04:00 +7°C° 0 mm 2 mps 744 mmHg 82%
    05:00 +6°C° 0 mm 2 mps 744 mmHg 82%
    06:00 +6°C° 0 mm 2 mps 744 mmHg 82%
    07:00 +7°C° 0 mm 3 mps 744 mmHg 81%
    08:00 +7°C° 0 mm 3 mps 744 mmHg 80%
    09:00 +7°C° 0 mm 3 mps 744 mmHg 79%
    10:00 +7°C° 0 mm 4 mps 744 mmHg 77%
    11:00 +8°C° 0 mm 5 mps 745 mmHg 75%
    12:00 +9°C° 0 mm 6 mps 745 mmHg 73%
    13:00 +9°C° 0 mm 5 mps 745 mmHg 76%
    14:00 +9°C° 0 mm 5 mps 745 mmHg 79%
    15:00 +10°C° 0 mm 4 mps 746 mmHg 83%
    16:00 +9°C° 0.6 mm 3 mps 746 mmHg 87%
    17:00 +9°C° 0.6 mm 3 mps 747 mmHg 91%
    18:00 +8°C° 0.6 mm 2 mps 747 mmHg 95%
    19:00 +8°C° 0 mm 2 mps 748 mmHg 96%
    20:00 +9°C° 0 mm 1 mps 748 mmHg 97%
    21:00 +9°C° 0 mm 1 mps 749 mmHg 98%
    22:00 +9°C° 0 mm 1 mps 749 mmHg 97%
    23:00 +9°C° 0 mm 1 mps 749 mmHg 97%

    24 February, Sunday

    Time Temperature Precipitation Wind Pressure Humidity
    00:00 +8°C° 0 mm 0 mps 750 mmHg 97%
    01:00 +7°C° 0 mm 0 mps 750 mmHg 96%
    02:00 +7°C° 0 mm 0 mps 750 mmHg 95%
    03:00 +7°C° 0 mm 0 mps 750 mmHg 94%
    04:00 +6°C° 0 mm 0 mps 750 mmHg 95%
    05:00 +7°C° 0 mm 1 mps 750 mmHg 96%
    06:00 +6°C° 0 mm 1 mps 750 mmHg 96%
    07:00 +6°C° 0 mm 1 mps 750 mmHg 96%
    08:00 +7°C° 0 mm 1 mps 750 mmHg 96%
    09:00 +7°C° 0 mm 1 mps 750 mmHg 95%
    10:00 +8°C° 0 mm 1 mps 750 mmHg 94%
    11:00 +9°C° 0 mm 1 mps 750 mmHg 92%
    12:00 +10°C° 0 mm 1 mps 750 mmHg 91%
    13:00 +10°C° 0 mm 1 mps 749 mmHg 88%
    14:00 +10°C° 0 mm 2 mps 749 mmHg 84%
    15:00 +12°C° 0 mm 2 mps 749 mmHg 81%
    16:00 +10°C° 0 mm 2 mps 749 mmHg 84%
    17:00 +9°C° 0 mm 2 mps 749 mmHg 87%
    18:00 +8°C° 0 mm 2 mps 749 mmHg 91%
    19:00 +9°C° 0 mm 1 mps 749 mmHg 91%
    20:00 +9°C° 0 mm 1 mps 749 mmHg 92%
    21:00 +9°C° 0 mm 1 mps 750 mmHg 93%
    22:00 +8°C° 0 mm 1 mps 750 mmHg 94%
    23:00 +8°C° 0 mm 1 mps 750 mmHg 95%

    25 February, Monday

    Time Temperature Precipitation Wind Pressure Humidity
    00:00 +8°C° 0 mm 1 mps 750 mmHg 96%
    01:00 +8°C° 0 mm 1 mps 750 mmHg 97%
    02:00 +8°C° 0 mm 1 mps 750 mmHg 97%
    03:00 +8°C° 0 mm 1 mps 750 mmHg 97%
    04:00 +8°C° 0 mm 1 mps 750 mmHg 97%
    05:00 +8°C° 0 mm 1 mps 750 mmHg 97%
    06:00 +9°C° 0 mm 1 mps 750 mmHg 97%
    07:00 +9°C° 0 mm 1 mps 750 mmHg 96%
    08:00 +8°C° 0 mm 2 mps 750 mmHg 95%
    09:00 +9°C° 0 mm 2 mps 751 mmHg 94%
    10:00 +10°C° 0 mm 2 mps 751 mmHg 89%
    11:00 +11°C° 0 mm 3 mps 751 mmHg 84%
    12:00 +12°C° 0 mm 3 mps 751 mmHg 79%
    13:00 +12°C° 0 mm 3 mps 751 mmHg 78%
    14:00 +12°C° 0 mm 3 mps 751 mmHg 76%
    15:00 +13°C° 0 mm 3 mps 750 mmHg 75%
    16:00 +12°C° 0 mm 2 mps 750 mmHg 80%
    17:00 +10°C° 0 mm 2 mps 750 mmHg 85%
    18:00 +10°C° 0 mm 1 mps 750 mmHg 90%
    19:00 +10°C° 0 mm 1 mps 751 mmHg 91%
    20:00 +9°C° 0 mm 1 mps 751 mmHg 91%
    21:00 +9°C° 0 mm 1 mps 751 mmHg 92%
    22:00 +9°C° 0 mm 1 mps 751 mmHg 92%
    23:00 +8°C° 0 mm 1 mps 750 mmHg 92%

    26 February, Tuesday

    Time Temperature Precipitation Wind Pressure Humidity
    00:00 +7°C° 0 mm 0 mps 750 mmHg 92%
    01:00 +7°C° 0 mm 0 mps 750 mmHg 91%
    02:00 +7°C° 0 mm 0 mps 750 mmHg 90%
    03:00 +6°C° 0 mm 0 mps 749 mmHg 89%
    04:00 +6°C° 0 mm 0 mps 749 mmHg 88%
    05:00 +6°C° 0 mm 0 mps 749 mmHg 88%
    06:00 +6°C° 0 mm 0 mps 748 mmHg 88%
    07:00 +6°C° 0 mm 0 mps 748 mmHg 87%
    08:00 +7°C° 0 mm 0 mps 748 mmHg 86%
    09:00 +7°C° 0 mm 0 mps 749 mmHg 85%
    10:00 +10°C° 0 mm 1 mps 748 mmHg 80%
    11:00 +11°C° 0 mm 1 mps 748 mmHg 74%
    12:00 +12°C° 0 mm 1 mps 748 mmHg 68%
    13:00 +13°C° 0 mm 1 mps 748 mmHg 65%
    14:00 +13°C° 0 mm 1 mps 748 mmHg 62%
    15:00 +14°C° 0 mm 1 mps 747 mmHg 59%
    16:00 +12°C° 0 mm 1 mps 747 mmHg 65%
    17:00 +11°C° 0 mm 1 mps 747 mmHg 71%
    18:00 +9°C° 0 mm 1 mps 746 mmHg 77%
    19:00 +9°C° 0 mm 1 mps 746 mmHg 79%
    20:00 +8°C° 0 mm 1 mps 746 mmHg 81%
    21:00 +8°C° 0 mm 1 mps 746 mmHg 82%
    22:00 +7°C° 0 mm 1 mps 745 mmHg 83%
    23:00 +6°C° 0 mm 0 mps 745 mmHg 84%
    Show more